Picassent, Spain
Current Conditions -  °F | °C
As of 7:00 AM on Friday 19 Dec 2014 (Local Time) from LEVC Reporting Station
Clear Clear  
Wind Chill: 42°   Ceiling: Unl
Heat Index: 45°   Visibility: 6mi
Dew Point: 45°   Wind: 5mph
Humidity: 100%   Direction: 280°W
Pressure: 30.33"   Gusts: NA
Location:  39.37°N, 0.45°W
Report Text: LEVC 190600Z 28004KT CAVOK 07/07 Q1027 NOSIG
Loading
Personal Weather Stations






























Interactive Weather Map New forecast layout! Learn more

10-Day Weather Forecast

Advertisements
Track Severe Weather on mobile